Location: Clanezzo
(45.7500°N, 9.6000°E)
Time: 08:37:04
(UTC+00:00)

Gbstr 26 Del rocket - Pass Details

Date: 26 September 2021
Orbit: 492 x 1263 km, 51.8° (Epoch: 18 October)

Event Time Altitude Azimuth Distance (km) Brightness Sun altitude
Rises 17:40:07 0° 178° (S) 3,751 7.0 -5.9°
Reaches altitude 10° 17:43:36 10° 159° (SSE) 2,936 6.3 -6.5°
Maximum altitude 17:48:07 18° 120° (ESE) 2,534 5.6 -7.3°
Drops below altitude 10° 17:52:58 10° 82° (E) 3,190 6.1 -8.1°
Enters shadow 17:53:59 - 77° (ENE) 3,424 6.2 -8.3°
